Location: Grand Mazuras
(45.9128°N, 1.7636°E)
Time: 19:58:15
(UTC+00:00)

N. Korean satellite - Pass Details

Date: 02 October 2021
Orbit: 450 x 494 km, 97.3° (Epoch: 28 October)

Event Time Altitude Azimuth Distance (km) Brightness Sun altitude
Rises 04:54:52 0° 17° (NNE) 2,554 10.5 -10.9°
Reaches altitude 10° 04:56:59 10° 23° (NNE) 1,677 9.7 -10.5°
Maximum altitude 05:00:30 49° 99° (E) 638 7.7 -9.9°
Drops below altitude 10° 05:04:01 10° 176° (S) 1,682 9.3 -9.3°
Sets 05:06:09 0° 182° (S) 2,563 10.2 -8.9°
